• In Czech Republic
  • List of Countries
  • For 7 days
  • Water Temperature
  • Satellite Maps
  • Weather Map
  • Weather Widgets
  • user-avatar
    Login

    Hourly Weather Barra

    Today, 17 October, Tuesday

    Time Temperature Precipitation Wind Pressure Humidity
    00:00 +21°C° 1.4 mm 2 mps 747 mmHg 96%
    01:00 +21°C° 1.4 mm 2 mps 746 mmHg 96%
    02:00 +21°C° 0.1 mm 2 mps 746 mmHg 96%
    03:00 +21°C° 0.1 mm 2 mps 746 mmHg 95%
    04:00 +21°C° 0 mm 3 mps 746 mmHg 94%
    05:00 +21°C° 0.3 mm 2 mps 746 mmHg 93%
    06:00 +21°C° 0.3 mm 2 mps 746 mmHg 92%
    07:00 +23°C° 0.3 mm 2 mps 747 mmHg 92%
    08:00 +23°C° 1 mm 2 mps 747 mmHg 90%
    09:00 +24°C° 1 mm 1 mps 747 mmHg 89%
    10:00 +25°C° 0 mm 2 mps 748 mmHg 84%
    11:00 +25°C° 1 mm 2 mps 748 mmHg 84%
    12:00 +25°C° 1 mm 2 mps 747 mmHg 84%
    13:00 +25°C° 1 mm 2 mps 746 mmHg 84%
    14:00 +25°C° 2.1 mm 2 mps 746 mmHg 87%
    15:00 +24°C° 2.1 mm 1 mps 746 mmHg 90%
    16:00 +24°C° 0 mm 1 mps 746 mmHg 89%
    17:00 +24°C° 0.9 mm 2 mps 746 mmHg 91%
    18:00 +23°C° 0.9 mm 2 mps 747 mmHg 93%
    19:00 +21°C° 0.9 mm 3 mps 747 mmHg 95%
    20:00 +21°C° 0.6 mm 3 mps 747 mmHg 95%
    21:00 +21°C° 0.6 mm 3 mps 747 mmHg 95%
    22:00 +21°C° 0 mm 3 mps 747 mmHg 95%
    23:00 +21°C° 0.4 mm 3 mps 747 mmHg 95%

    Tomorrow, 18 October, Wednesday

    Time Temperature Precipitation Wind Pressure Humidity
    00:00 +21°C° 0.4 mm 3 mps 747 mmHg 95%
    01:00 +21°C° 0.4 mm 2 mps 747 mmHg 95%
    02:00 +21°C° 0.4 mm 2 mps 747 mmHg 95%
    03:00 +21°C° 0.4 mm 2 mps 746 mmHg 95%
    04:00 +21°C° 0.4 mm 2 mps 746 mmHg 95%
    05:00 +21°C° 0.5 mm 2 mps 746 mmHg 94%
    06:00 +21°C° 0.5 mm 3 mps 747 mmHg 92%
    07:00 +22°C° 0.5 mm 3 mps 747 mmHg 90%
    08:00 +24°C° 0.6 mm 3 mps 747 mmHg 84%
    09:00 +25°C° 0.6 mm 3 mps 747 mmHg 77%
    10:00 +27°C° 0.6 mm 3 mps 748 mmHg 71%
    11:00 +28°C° 0.1 mm 4 mps 747 mmHg 68%
    12:00 +29°C° 0.1 mm 4 mps 746 mmHg 64%
    13:00 +30°C° 0.1 mm 4 mps 746 mmHg 61%
    14:00 +29°C° 0.8 mm 4 mps 746 mmHg 65%
    15:00 +28°C° 0.8 mm 4 mps 746 mmHg 70%
    16:00 +27°C° 0.8 mm 4 mps 746 mmHg 75%
    17:00 +26°C° 0.5 mm 4 mps 746 mmHg 80%
    18:00 +25°C° 0.5 mm 3 mps 746 mmHg 86%
    19:00 +24°C° 0.5 mm 3 mps 747 mmHg 91%
    20:00 +24°C° 0.2 mm 3 mps 747 mmHg 92%
    21:00 +24°C° 0.2 mm 2 mps 748 mmHg 93%
    22:00 +24°C° 0.2 mm 2 mps 748 mmHg 94%
    23:00 +24°C° 0.6 mm 2 mps 748 mmHg 94%

    Day after tomorrow, 19 October, Thursday

    Time Temperature Precipitation Wind Pressure Humidity
    00:00 +24°C° 0.6 mm 2 mps 748 mmHg 94%
    01:00 +24°C° 0.6 mm 2 mps 747 mmHg 95%
    02:00 +24°C° 0.6 mm 3 mps 747 mmHg 95%
    03:00 +22°C° 0.6 mm 3 mps 747 mmHg 95%
    04:00 +22°C° 0.6 mm 3 mps 747 mmHg 95%
    05:00 +24°C° 0.7 mm 3 mps 748 mmHg 94%
    06:00 +24°C° 0.7 mm 3 mps 748 mmHg 93%
    07:00 +24°C° 0.7 mm 3 mps 749 mmHg 92%
    08:00 +25°C° 1 mm 3 mps 749 mmHg 89%
    09:00 +26°C° 1 mm 3 mps 749 mmHg 86%
    10:00 +27°C° 1 mm 4 mps 749 mmHg 84%
    11:00 +27°C° 0.5 mm 4 mps 749 mmHg 82%
    12:00 +27°C° 0.5 mm 3 mps 749 mmHg 80%
    13:00 +28°C° 0.5 mm 3 mps 748 mmHg 79%
    14:00 +28°C° 0.6 mm 4 mps 748 mmHg 78%
    15:00 +28°C° 0.6 mm 4 mps 748 mmHg 77%
    16:00 +28°C° 0.6 mm 4 mps 748 mmHg 76%
    17:00 +27°C° 1.3 mm 4 mps 748 mmHg 81%
    18:00 +26°C° 1.3 mm 4 mps 749 mmHg 86%
    19:00 +25°C° 1.3 mm 4 mps 749 mmHg 92%
    20:00 +25°C° 1.5 mm 4 mps 749 mmHg 92%
    21:00 +25°C° 1.5 mm 4 mps 750 mmHg 93%
    22:00 +25°C° 1.5 mm 4 mps 750 mmHg 94%
    23:00 +23°C° 1.4 mm 4 mps 750 mmHg 94%

    20 October, Friday

    Time Temperature Precipitation Wind Pressure Humidity
    00:00 +23°C° 1.4 mm 4 mps 750 mmHg 95%
    01:00 +23°C° 1.4 mm 4 mps 750 mmHg 95%
    02:00 +23°C° 1.2 mm 4 mps 750 mmHg 95%
    03:00 +23°C° 1.2 mm 4 mps 749 mmHg 95%
    04:00 +23°C° 1.2 mm 4 mps 749 mmHg 95%
    05:00 +25°C° 1.3 mm 4 mps 750 mmHg 94%
    06:00 +25°C° 1.3 mm 4 mps 750 mmHg 94%
    07:00 +25°C° 1.3 mm 4 mps 750 mmHg 93%
    08:00 +26°C° 0.8 mm 4 mps 751 mmHg 90%
    09:00 +27°C° 0.8 mm 4 mps 751 mmHg 87%
    10:00 +27°C° 0.8 mm 4 mps 751 mmHg 84%
    11:00 +28°C° 0.5 mm 4 mps 750 mmHg 80%
    12:00 +29°C° 0.5 mm 4 mps 750 mmHg 77%
    13:00 +29°C° 0.5 mm 4 mps 749 mmHg 74%
    14:00 +29°C° 0.2 mm 4 mps 749 mmHg 75%
    15:00 +29°C° 0.2 mm 4 mps 748 mmHg 76%
    16:00 +28°C° 0.2 mm 4 mps 748 mmHg 76%
    17:00 +27°C° 0.1 mm 4 mps 748 mmHg 82%
    18:00 +26°C° 0.1 mm 4 mps 749 mmHg 87%
    19:00 +25°C° 0.1 mm 3 mps 749 mmHg 92%
    20:00 +25°C° 0.2 mm 3 mps 749 mmHg 93%
    21:00 +25°C° 0.2 mm 3 mps 750 mmHg 93%
    22:00 +25°C° 0.2 mm 3 mps 750 mmHg 94%
    23:00 +25°C° 0.2 mm 3 mps 750 mmHg 94%

    21 October, Saturday

    Time Temperature Precipitation Wind Pressure Humidity
    00:00 +25°C° 0.2 mm 3 mps 749 mmHg 94%
    01:00 +25°C° 0.2 mm 3 mps 748 mmHg 94%
    02:00 +25°C° 0.2 mm 2 mps 748 mmHg 95%
    03:00 +25°C° 0.2 mm 2 mps 748 mmHg 95%
    04:00 +24°C° 0.2 mm 2 mps 747 mmHg 95%
    05:00 +25°C° 0.1 mm 2 mps 748 mmHg 94%
    06:00 +25°C° 0.1 mm 2 mps 748 mmHg 93%
    07:00 +25°C° 0.1 mm 2 mps 748 mmHg 92%
    08:00 +26°C° 0.1 mm 2 mps 748 mmHg 86%
    09:00 +28°C° 0.1 mm 1 mps 748 mmHg 80%
    10:00 +29°C° 0.1 mm 1 mps 748 mmHg 74%
    11:00 +29°C° 0.4 mm 2 mps 748 mmHg 74%
    12:00 +29°C° 0.4 mm 2 mps 747 mmHg 74%
    13:00 +29°C° 0.4 mm 2 mps 746 mmHg 74%
    14:00 +29°C° 0.9 mm 2 mps 746 mmHg 78%
    15:00 +28°C° 0.9 mm 2 mps 746 mmHg 83%
    16:00 +27°C° 0.9 mm 1 mps 745 mmHg 87%
    17:00 +26°C° 0.5 mm 1 mps 746 mmHg 89%
    18:00 +26°C° 0.5 mm 1 mps 746 mmHg 92%
    19:00 +25°C° 0.5 mm 1 mps 746 mmHg 95%
    20:00 +25°C° 0.5 mm 1 mps 746 mmHg 95%
    21:00 +22°C° 0.5 mm 0 mps 747 mmHg 96%
    22:00 +22°C° 0.5 mm 0 mps 747 mmHg 96%
    23:00 +22°C° 0.5 mm 0 mps 746 mmHg 97%

    22 October, Sunday

    Time Temperature Precipitation Wind Pressure Humidity
    00:00 +22°C° 0.5 mm 0 mps 746 mmHg 97%
    01:00 +24°C° 0.5 mm 1 mps 745 mmHg 97%
    02:00 +24°C° 0.6 mm 1 mps 745 mmHg 96%
    03:00 +24°C° 0.6 mm 1 mps 745 mmHg 96%
    04:00 +24°C° 0.6 mm 1 mps 745 mmHg 95%
    05:00 +24°C° 0.4 mm 1 mps 745 mmHg 93%
    06:00 +25°C° 0.4 mm 2 mps 746 mmHg 91%
    07:00 +25°C° 0.4 mm 2 mps 746 mmHg 90%
    08:00 +27°C° 0.1 mm 2 mps 746 mmHg 79%
    09:00 +29°C° 0.1 mm 3 mps 746 mmHg 68%
    10:00 +30°C° 0.1 mm 3 mps 746 mmHg 57%
    11:00 +31°C° 0 mm 3 mps 746 mmHg 54%
    12:00 +33°C° 0 mm 4 mps 745 mmHg 52%
    13:00 +33°C° 0 mm 4 mps 745 mmHg 49%
    14:00 +33°C° 0 mm 4 mps 744 mmHg 50%
    15:00 +33°C° 0 mm 4 mps 744 mmHg 51%
    16:00 +31°C° 0 mm 3 mps 744 mmHg 52%
    17:00 +29°C° 0 mm 3 mps 744 mmHg 61%
    18:00 +27°C° 0 mm 2 mps 745 mmHg 71%
    19:00 +26°C° 0 mm 2 mps 745 mmHg 81%
    20:00 +25°C° 0 mm 1 mps 746 mmHg 84%
    21:00 +24°C° 0 mm 1 mps 746 mmHg 88%
    22:00 +22°C° 0 mm 0 mps 746 mmHg 91%
    23:00 +22°C° 0 mm 0 mps 746 mmHg 91%
    Show more